User: anonymous   Login
Location: Red Shale Campground
(45.5700°N, 106.1600°W)
Time: 23:31:16
(UTC-06:00)
Language:

FENGYUN 3A - Orbit

View from above orbital plane
View from above orbital plane
View from above satellite
View from above satellite

Ground track
Ground track

The orbit data is extracted from the following two-line orbital elements,

1 32958U 08026A   14303.74868740  .00000194  00000-0  11229-3 0  4973
2 32958 098.5384 357.9043 0009332 179.9023 180.2156 14.19485149333070
Epoch (UTC): 30 October 2014 17:58:06
Eccentricity: 0.0009332
inclination: 98.5384°
perigee height: 820 km
apogee height: 834 km
right ascension of ascending node: 357.9043°
argument of perigee: 179.9023°
revolutions per day: 14.19485149
mean anomaly at epoch: 180.2156°
orbit number at epoch: 33307

The dashed part of the orbit path shows where the satellite is in the earth's shadow,  

DLR